STARLINK-11502, 62474

Orbit data source: Space-Track

STARLINK-11502, 62474 is a payload satellite owned by SpaceX/Seattle (US) in LEO that was launched on Tue, 31 Dec 2024 UTC via an FALCON 9 launch vehicle from the Air Force Eastern Test Range (AFETR). Payload-class satellites include a variety of spacecraft equipped with specific instruments for various scientific and technological missions. These include communications satellites like Starlink; space stations such as the ISS; scientific satellites like the Hubble; Earth observation satellites from companies like Planet Labs, Umbra, and HawkEye 360; GPS; miniature CubeSats for education and research; and military/defense satellites.

Loading next visibility...
Identifier
62474, 2024-254N
Orbit
LEO
Country
Flag of USUS
Related business
Manufacturer
SpaceX/Seattle
Mission
Operational Commercial Communications
Bus & Motor
STARLINK V2MD, Unknown motor
Mass
960 kg wet, ~910 kg dry
Launch date (UTC)
2024-12-31 (2 years ago)
Launch vehicle
FALCON 9
Launch site
Air Force Eastern Test Range (AFETR)
Object type
Payload
Rocket body
Debris
Shape & HBR
Box + 2 Pan, 18.1 m
Radar Cross Section
36.964 m², Large (>1 m²)

Expand to show TLE details & history
Last TLE update: 1 day ago

TLE from 1 day ago
0 STARLINK-11502
1 62474U 24254N   26206.10414729  .00180893  00000-0  13832-2 0  9992
2 62474  43.0018 114.6280 0002077 278.1956  81.8676 15.70831755 91016
Epoch: 2026-07-25T02:29Z
TLE epoch observation values (Epoch: 2026-07-25T02:29:58.325Z)
Latitude
-0.00004°
Longitude
134.31372°
Altitude
356.092 km
Speed
7.697 km/s
True Right ascension
07h 38m 30s
True Declination
0° 00' 00"
Sunlit
Object was in daylight at epoch
Visualization orbit readout
Latitude
Unknown
Longitude
Unknown
Altitude
Unknown
Speed
Unknown
Apparent Right ascension
Unknown
Apparent Declination
Unknown
Sunlit
N/A
Visualization observer readout
Local Sidereal Time
17:05:37
Azimuth
Unknown
Elevation
Unknown
Doppler factor
Unknown
Orbital elements
Apogee altitude
359.899 km
Perigee altitude
357.101 km
Semi-major axis
6,736.637 km
Eccentricity
0.00021
Inclination
43.0018°
RAAN
114.628°
Arg. of periapsis
278.1956°
True anomaly
81.89116°
Mean anomaly
81.8676°
Eccentric anomaly
81.87938°
Mean motion
3.92535 °/min
Orbital period
91.71 mins
BSTAR
0.0013832
Loading maneuver chart data...
Computing Atmospheric mass density...
Loading historical data...
Loading historical data...
Loading historical data...
Loading historical data...
Loading historical data...
Loading historical data...
Loading historical data...

Documentation

Showing up to 5 results
|